When you browse on this site, cookies collect data to enhance your experience and personalize the content and advertising you see.
Visit our Privacy Policy to learn more. By continuing to use the site, you agree to this use of cookies and data.
  • In Romania
  • List of Countries
  • For 7 days
  • Water Temperature
  • Satellite Maps
  • Weather Map
  • Weather Widgets
  • user-avatar
    Login

    Hourly Weather Kitzbuhel

    Today, 25 June, Tuesday

    Time Temperature Precipitation Wind Pressure Humidity
    00:00 +17°C° 0 mm 2 mps 682 mmHg 87%
    01:00 +17°C° 0 mm 2 mps 682 mmHg 84%
    02:00 +16°C° 0 mm 2 mps 682 mmHg 83%
    03:00 +16°C° 0 mm 2 mps 682 mmHg 82%
    04:00 +16°C° 0 mm 2 mps 681 mmHg 81%
    05:00 +18°C° 0 mm 2 mps 682 mmHg 76%
    06:00 +21°C° 0 mm 1 mps 683 mmHg 71%
    07:00 +23°C° 0 mm 1 mps 683 mmHg 64%
    08:00 +26°C° 0 mm 1 mps 684 mmHg 56%
    09:00 +28°C° 0 mm 1 mps 684 mmHg 48%
    10:00 +29°C° 0 mm 0 mps 685 mmHg 40%
    11:00 +31°C° 0 mm 1 mps 685 mmHg 36%
    12:00 +32°C° 0 mm 1 mps 685 mmHg 33%
    13:00 +32°C° 0 mm 2 mps 685 mmHg 29%
    14:00 +32°C° 0 mm 2 mps 685 mmHg 32%
    15:00 +32°C° 0 mm 2 mps 685 mmHg 35%
    16:00 +31°C° 0 mm 2 mps 685 mmHg 37%
    17:00 +29°C° 0 mm 1 mps 685 mmHg 50%
    18:00 +28°C° 0 mm 1 mps 685 mmHg 62%
    19:00 +24°C° 0 mm 0 mps 684 mmHg 74%
    20:00 +24°C° 0 mm 1 mps 684 mmHg 76%
    21:00 +22°C° 0 mm 1 mps 684 mmHg 78%
    22:00 +21°C° 0 mm 1 mps 684 mmHg 80%
    23:00 +20°C° 0 mm 1 mps 684 mmHg 77%

    Tomorrow, 26 June, Wednesday

    Time Temperature Precipitation Wind Pressure Humidity
    00:00 +20°C° 0 mm 1 mps 684 mmHg 73%
    01:00 +20°C° 0 mm 1 mps 685 mmHg 70%
    02:00 +19°C° 0 mm 1 mps 684 mmHg 67%
    03:00 +19°C° 0 mm 1 mps 684 mmHg 64%
    04:00 +19°C° 0 mm 1 mps 684 mmHg 61%
    05:00 +21°C° 0 mm 1 mps 684 mmHg 59%
    06:00 +23°C° 0 mm 1 mps 685 mmHg 57%
    07:00 +25°C° 0 mm 1 mps 686 mmHg 55%
    08:00 +27°C° 0 mm 1 mps 686 mmHg 49%
    09:00 +30°C° 0 mm 1 mps 686 mmHg 43%
    10:00 +32°C° 0 mm 1 mps 687 mmHg 36%
    11:00 +33°C° 0 mm 1 mps 687 mmHg 33%
    12:00 +33°C° 0 mm 1 mps 687 mmHg 30%
    13:00 +35°C° 0 mm 2 mps 687 mmHg 26%
    14:00 +34°C° 0 mm 2 mps 687 mmHg 29%
    15:00 +34°C° 0 mm 2 mps 686 mmHg 31%
    16:00 +34°C° 0 mm 2 mps 686 mmHg 33%
    17:00 +31°C° 0 mm 1 mps 686 mmHg 46%
    18:00 +28°C° 0 mm 1 mps 685 mmHg 59%
    19:00 +24°C° 0 mm 0 mps 685 mmHg 71%
    20:00 +25°C° 0 mm 1 mps 685 mmHg 72%
    21:00 +23°C° 0 mm 1 mps 685 mmHg 73%
    22:00 +21°C° 0 mm 1 mps 685 mmHg 74%
    23:00 +21°C° 0 mm 1 mps 684 mmHg 72%

    Day after tomorrow, 27 June, Thursday

    Time Temperature Precipitation Wind Pressure Humidity
    00:00 +21°C° 0 mm 1 mps 684 mmHg 69%
    01:00 +20°C° 0 mm 1 mps 684 mmHg 67%
    02:00 +20°C° 0 mm 1 mps 684 mmHg 66%
    03:00 +20°C° 0 mm 1 mps 684 mmHg 64%
    04:00 +20°C° 0 mm 1 mps 683 mmHg 63%
    05:00 +21°C° 0 mm 1 mps 684 mmHg 62%
    06:00 +23°C° 0 mm 1 mps 684 mmHg 60%
    07:00 +23°C° 0 mm 0 mps 684 mmHg 59%
    08:00 +27°C° 0 mm 1 mps 684 mmHg 53%
    09:00 +29°C° 0 mm 1 mps 685 mmHg 46%
    10:00 +31°C° 0 mm 2 mps 685 mmHg 40%
    11:00 +31°C° 0 mm 2 mps 685 mmHg 40%
    12:00 +31°C° 0 mm 3 mps 685 mmHg 40%
    13:00 +33°C° 0 mm 3 mps 685 mmHg 40%
    14:00 +31°C° 0.3 mm 3 mps 684 mmHg 47%
    15:00 +30°C° 0.3 mm 3 mps 684 mmHg 53%
    16:00 +29°C° 0.3 mm 3 mps 683 mmHg 59%
    17:00 +27°C° 1.4 mm 2 mps 683 mmHg 70%
    18:00 +25°C° 1.4 mm 2 mps 682 mmHg 80%
    19:00 +24°C° 1.4 mm 1 mps 682 mmHg 91%
    20:00 +22°C° 0.2 mm 1 mps 682 mmHg 92%
    21:00 +21°C° 0.2 mm 1 mps 682 mmHg 94%
    22:00 +17°C° 0.2 mm 0 mps 682 mmHg 96%
    23:00 +17°C° 0.1 mm 0 mps 682 mmHg 96%

    28 June, Friday

    Time Temperature Precipitation Wind Pressure Humidity
    00:00 +17°C° 0.1 mm 0 mps 682 mmHg 96%
    01:00 +16°C° 0.1 mm 0 mps 682 mmHg 97%
    02:00 +16°C° 0 mm 0 mps 682 mmHg 97%
    03:00 +15°C° 0 mm 0 mps 682 mmHg 97%
    04:00 +15°C° 0 mm 0 mps 682 mmHg 98%
    05:00 +16°C° 0 mm 0 mps 682 mmHg 96%
    06:00 +17°C° 0 mm 0 mps 682 mmHg 95%
    07:00 +20°C° 0 mm 1 mps 682 mmHg 94%
    08:00 +21°C° 0 mm 1 mps 682 mmHg 82%
    09:00 +23°C° 0 mm 1 mps 682 mmHg 70%
    10:00 +25°C° 0 mm 1 mps 682 mmHg 58%
    11:00 +26°C° 0 mm 2 mps 682 mmHg 51%
    12:00 +26°C° 0 mm 2 mps 682 mmHg 44%
    13:00 +27°C° 0 mm 2 mps 682 mmHg 37%
    14:00 +27°C° 0 mm 2 mps 682 mmHg 39%
    15:00 +26°C° 0 mm 2 mps 682 mmHg 40%
    16:00 +26°C° 0 mm 2 mps 682 mmHg 42%
    17:00 +24°C° 0 mm 2 mps 682 mmHg 53%
    18:00 +23°C° 0 mm 2 mps 681 mmHg 63%
    19:00 +21°C° 0 mm 1 mps 681 mmHg 73%
    20:00 +19°C° 0 mm 1 mps 681 mmHg 79%
    21:00 +16°C° 0 mm 1 mps 681 mmHg 85%
    22:00 +13°C° 0 mm 0 mps 681 mmHg 91%
    23:00 +14°C° 0 mm 1 mps 681 mmHg 90%

    29 June, Saturday

    Time Temperature Precipitation Wind Pressure Humidity
    00:00 +14°C° 0 mm 1 mps 681 mmHg 90%
    01:00 +13°C° 0 mm 1 mps 681 mmHg 90%
    02:00 +13°C° 0 mm 1 mps 681 mmHg 89%
    03:00 +13°C° 0 mm 1 mps 680 mmHg 87%
    04:00 +13°C° 0 mm 1 mps 680 mmHg 86%
    05:00 +15°C° 0 mm 1 mps 681 mmHg 78%
    06:00 +16°C° 0 mm 0 mps 681 mmHg 70%
    07:00 +18°C° 0 mm 0 mps 681 mmHg 63%
    08:00 +22°C° 0 mm 1 mps 682 mmHg 55%
    09:00 +24°C° 0 mm 1 mps 682 mmHg 47%
    10:00 +26°C° 0 mm 1 mps 683 mmHg 39%
    11:00 +27°C° 0 mm 1 mps 682 mmHg 36%
    12:00 +28°C° 0 mm 1 mps 682 mmHg 33%
    13:00 +30°C° 0 mm 1 mps 682 mmHg 30%
    14:00 +29°C° 0 mm 2 mps 682 mmHg 32%
    15:00 +29°C° 0 mm 2 mps 682 mmHg 35%
    16:00 +29°C° 0 mm 2 mps 682 mmHg 37%
    17:00 +27°C° 0 mm 1 mps 681 mmHg 50%
    18:00 +25°C° 0 mm 1 mps 681 mmHg 62%
    19:00 +23°C° 0 mm 1 mps 681 mmHg 75%
    20:00 +22°C° 0 mm 1 mps 681 mmHg 77%
    21:00 +20°C° 0 mm 1 mps 681 mmHg 79%
    22:00 +18°C° 0 mm 2 mps 681 mmHg 81%
    23:00 +17°C° 0 mm 2 mps 680 mmHg 81%

    30 June, Sunday

    Time Temperature Precipitation Wind Pressure Humidity
    00:00 +17°C° 0 mm 2 mps 680 mmHg 82%
    01:00 +17°C° 0 mm 2 mps 680 mmHg 82%
    02:00 +17°C° 0 mm 2 mps 680 mmHg 80%
    03:00 +17°C° 0 mm 2 mps 680 mmHg 78%
    04:00 +17°C° 0 mm 2 mps 679 mmHg 75%
    05:00 +20°C° 0 mm 1 mps 680 mmHg 70%
    06:00 +22°C° 0 mm 1 mps 680 mmHg 65%
    07:00 +24°C° 0 mm 1 mps 681 mmHg 59%
    08:00 +26°C° 0 mm 1 mps 681 mmHg 52%
    09:00 +29°C° 0 mm 1 mps 682 mmHg 45%
    10:00 +31°C° 0 mm 1 mps 682 mmHg 38%
    11:00 +32°C° 0 mm 1 mps 682 mmHg 35%
    12:00 +32°C° 0 mm 1 mps 682 mmHg 33%
    13:00 +34°C° 0 mm 2 mps 682 mmHg 30%
    14:00 +32°C° 0 mm 2 mps 682 mmHg 32%
    15:00 +32°C° 0 mm 2 mps 682 mmHg 34%
    16:00 +32°C° 0 mm 2 mps 682 mmHg 36%
    17:00 +30°C° 0 mm 2 mps 681 mmHg 46%
    18:00 +28°C° 0 mm 1 mps 681 mmHg 56%
    19:00 +24°C° 0 mm 0 mps 681 mmHg 66%
    20:00 +24°C° 0 mm 1 mps 681 mmHg 67%
    21:00 +22°C° 0 mm 1 mps 681 mmHg 68%
    22:00 +21°C° 0 mm 1 mps 681 mmHg 69%
    23:00 +20°C° 0 mm 1 mps 680 mmHg 68%
    Show more